Location: Eaton Estates
(41.3089°N, 82.0057°W)
Time: 03:24:55
(UTC+00:00)

Cosmos 2123 Rocket - Visible Passes

Search period start: 16 October 2021 00:00
Search period end: 26 October 2021 00:00
Orbit: 962 x 991 km, 82.9° (Epoch: 15 October)

Date Brightness Start Highest point End Pass type
(mag) Time Alt. Az. Time Alt. Az. Time Alt. Az.
16 Oct 3.9 00:35:29 10° N 00:41:51 84° E 00:48:11 10° S visible
16 Oct 6.6 02:23:14 10° NW 02:26:21 14° W 02:29:27 10° WSW visible
16 Oct 5.0 23:16:47 10° NNE 23:21:44 23° ENE 23:26:39 10° ESE visible
17 Oct 4.6 01:01:22 10° NNW 01:07:30 55° W 01:13:37 10° SSW visible
17 Oct 4.4 23:41:51 10° N 23:47:48 41° ENE 23:53:41 10° SE visible
18 Oct 5.7 01:27:36 10° NNW 01:32:59 30° W 01:38:20 10° SW visible
19 Oct 3.9 00:07:18 10° N 00:13:39 74° E 00:19:57 10° SSE visible
19 Oct 6.6 01:54:33 10° NW 01:58:17 16° W 02:02:00 10° WSW visible
20 Oct 4.4 00:33:06 10° NNW 00:39:21 63° W 00:45:32 10° S visible
20 Oct 4.5 23:13:46 10° N 23:19:33 36° ENE 23:25:16 10° SE visible
21 Oct 5.5 00:59:14 10° NNW 01:04:52 35° W 01:10:26 10° SSW visible
21 Oct 7.4 11:04:05 10° E 11:05:00 10° ENE 11:05:55 10° ENE visible
21 Oct 4.0 23:39:09 10° N 23:45:27 65° E 23:51:41 10° SSE visible
22 Oct 6.5 01:25:58 10° NW 01:30:12 19° W 01:34:25 10° SW visible
23 Oct 4.3 00:04:52 10° NNW 00:11:11 72° W 00:17:26 10° S visible
24 Oct 5.4 00:30:55 10° NNW 00:36:44 40° W 00:42:29 10° SSW visible
24 Oct 4.1 23:11:01 10° N 23:17:14 56° E 23:23:23 10° SSE visible
25 Oct 6.3 00:57:28 10° NW 01:02:07 22° W 01:06:43 10° SW visible
25 Oct 6.8 10:58:06 10° ESE 11:02:06 18° E 11:06:07 10° NE visible
25 Oct 4.1 23:36:39 10° N 23:43:00 82° W 23:49:16 10° S visible
